Location: Manosque
(43.8357°N, 5.7909°E)
Time: 12:47:55
(UTC+02:00)

ISS - Visible Passes

Search period start: 22 October 2019 00:00
Search period end: 31 October 2019 23:00
Orbit: 411 x 421 km, 51.6° (Epoch: 22 October)

Date Brightness Start Highest point End Pass type
(mag) Time Alt. Az. Time Alt. Az. Time Alt. Az.
24 Oct -1.0 06:47:56 10° S 06:50:20 18° SE 06:52:44 10° E visible
25 Oct -0.6 06:01:03 10° SE 06:01:57 11° SE 06:02:51 10° ESE visible
26 Oct -2.8 06:46:45 13° SW 06:49:36 46° SE 06:52:51 10° ENE visible
27 Oct -2.0 05:00:47 27° SSE 05:01:05 28° SE 05:04:01 10° ENE visible
27 Oct -3.3 06:34:26 10° W 06:37:42 46° NNW 06:40:58 10° NE visible
28 Oct -0.3 04:14:38 11° E 04:14:38 11° E 04:14:53 10° E visible
28 Oct -3.8 05:47:33 30° WSW 05:49:01 71° NNW 05:52:23 10° NE visible
29 Oct -2.7 05:01:15 45° ENE 05:01:15 45° ENE 05:03:44 10° ENE visible
29 Oct -2.5 06:34:24 10° WNW 06:37:21 28° NNW 06:40:20 10° NE visible
30 Oct -0.2 04:14:50 11° ENE 04:14:50 11° ENE 04:15:00 10° ENE visible
30 Oct -2.9 05:47:45 30° NW 05:48:34 35° NNW 05:51:44 10° NE visible
31 Oct -2.0 05:01:14 28° NE 05:01:14 28° NE 05:03:07 10° NE visible
31 Oct -2.1 06:34:23 10° WNW 06:37:06 22° N 06:39:47 10° NE visible
